TimeMST,TemperatureF,Dew PointF,Humidity,Sea Level PressureIn,VisibilityMPH,Wind Direction,Wind SpeedMPH,Gust SpeedMPH,PrecipitationIn,Events,Conditions,WindDirDegrees,DateUTC
12:07 AM,19.4,14.0,80,29.86,2.5,North,6.9,-,0.00,Snow,Light Snow,360,2013-01-30 07:07:00
12:15 AM,17.6,14.0,86,29.86,1.2,North,5.8,-,0.00,Snow,Light Snow,10,2013-01-30 07:15:00
12:19 AM,17.6,14.0,86,29.87,2.0,North,3.5,-,0.00,Snow,Light Snow,350,2013-01-30 07:19:00
12:27 AM,17.6,12.2,79,29.87,9.0,North,9.2,-,0.00,Snow,Light Snow,360,2013-01-30 07:27:00
12:53 AM,18.0,10.9,74,29.98,9.0,North,9.2,-,0.00,,Overcast,360,2013-01-30 07:53:00
1:53 AM,16.0,7.0,68,30.00,10.0,NW,4.6,-,0.01,,Overcast,320,2013-01-30 08:53:00
2:53 AM,15.1,7.0,70,30.03,10.0,NNW,9.2,-,N/A,,Partly Cloudy,340,2013-01-30 09:53:00
3:53 AM,10.9,6.1,81,30.04,10.0,SSW,4.6,-,N/A,,Clear,200,2013-01-30 10:53:00
4:53 AM,12.0,6.1,77,30.04,10.0,SSW,3.5,-,N/A,,Clear,200,2013-01-30 11:53:00
5:53 AM,10.9,5.0,77,30.06,10.0,ENE,3.5,-,N/A,,Clear,60,2013-01-30 12:53:00
6:53 AM,9.0,3.9,80,30.08,10.0,ENE,5.8,-,N/A,,Clear,60,2013-01-30 13:53:00
7:53 AM,12.0,6.1,77,30.08,10.0,Calm,Calm,-,N/A,,Clear,0,2013-01-30 14:53:00
8:53 AM,14.0,7.0,74,30.08,10.0,NE,4.6,-,N/A,,Clear,50,2013-01-30 15:53:00
9:53 AM,19.9,9.0,62,30.05,10.0,Calm,Calm,-,N/A,,Clear,0,2013-01-30 16:53:00
10:53 AM,24.1,10.0,55,30.02,10.0,ENE,8.1,-,N/A,,Clear,70,2013-01-30 17:53:00
11:53 AM,28.9,7.0,40,29.98,10.0,SSW,8.1,-,N/A,,Clear,210,2013-01-30 18:53:00
12:53 PM,34.0,7.0,32,29.92,10.0,South,10.4,16.1,N/A,,Clear,180,2013-01-30 19:53:00
1:53 PM,37.9,6.1,27,29.91,10.0,SSW,6.9,-,N/A,,Clear,210,2013-01-30 20:53:00
2:53 PM,42.1,3.9,21,29.87,10.0,West,5.8,-,N/A,,Clear,260,2013-01-30 21:53:00
3:25 PM,41.0,3.2,21,29.86,10.0,NNW,17.3,36.8,N/A,,Clear,340,2013-01-30 22:25:00
3:53 PM,39.9,3.9,22,29.94,10.0,NW,25.3,43.7,N/A,,Clear,320,2013-01-30 22:53:00
4:53 PM,37.9,6.1,27,29.96,10.0,NW,21.9,44.9,N/A,,Clear,320,2013-01-30 23:53:00
5:53 PM,36.0,6.1,29,29.97,10.0,WNW,21.9,36.8,N/A,,Clear,300,2013-01-31 00:53:00
6:53 PM,33.1,8.1,35,30.04,10.0,West,11.5,-,N/A,,Clear,280,2013-01-31 01:53:00
7:53 PM,30.9,9.0,40,30.04,10.0,WNW,11.5,-,N/A,,Clear,290,2013-01-31 02:53:00
8:53 PM,28.0,10.0,47,30.08,10.0,WNW,3.5,-,N/A,,Clear,300,2013-01-31 03:53:00
9:53 PM,27.0,10.0,49,30.06,10.0,SW,3.5,-,N/A,,Clear,220,2013-01-31 04:53:00
10:53 PM,19.9,10.9,68,30.09,10.0,ESE,8.1,-,N/A,,Clear,110,2013-01-31 05:53:00
11:53 PM,21.0,10.0,63,30.06,10.0,West,4.6,-,N/A,,Clear,260,2013-01-31 06:53:00